Presure
97 95 83 80 126 95 84 84 156 120 121 91 100 134 143 152 160 110 142 143 144 136 152 148 121 167 145 156 138 135 130 107 133 149 81 83 95 95 112 87 119 136 94
83 77 81 88 79 136 118 84 84 81 93 106 84 125 124 89 103 145 96 161 157 141 128 160 156 149 90 143 156 148 146 142 100 134 139 105 84 110 158 122 140 83 94
135 83 160 79 82 77 84 80 78 82 115 120 138 99 129 119 160 83 104 136 148 103 155 162 154 171 139 168 133 159 166 155 151 114 149 91 160 90 83 88 87 120 99
139 148 109 92 111 132 124 159 128 169 107 100 104 118 117 89 124 165 78 144 144 98 166 165 144 165 173 138 155 142 165 132 148 155 159 113 82 101 147 119 102 111 110
78 76 77 173 121 138 139 148 148 131 119 134 133 88 82 86 109 115 151 121 140 150 154 151 151 170 214 186 108 155 104 176 163 144 115 151 118 88 77 109 147 86 157
168 165 176 89 91 109 102 147 163 121 115 145 132 148 112 135 89 91 156 150 157 135 157 165 142 120 206 212 169 91 94 91 99 92 143 131 159 100 92 160 94 73 163
108 108 106 84 89 89 108 124 114 152 98 119 135 116 136 120 146 142 150 145 113 154 101 144 153 153 161 199 201 165 111 140 94 156 95 136 148 134 86 94 103 139 87
141 89 123 111 111 90 98 118 108 123 122 120 127 99 90 131 120 147 158 138 148 97 89 112 161 170 160 195 198 169 187 152 138 133 136 92 127 154 142 170 127 104 162
173 186 184 171 149 150 154 155 114 163 160 126 139 150 98 113 160 95 140 140 142 118 130 137 168 172 175 194 190 186 191 193 84 103 102 184 97 100 152 157 163 165 160
150 152 154 158 170 199 159 155 154 153 165 148 122 137 157 150 149 135 160 142 141 155 149 135 152 199 180 185 186 192 199 179 83 82 87 89 99 180 90 96 98 133 145
151 148 158 160 170 160 168 192 161 160 171 167 164 149 195 185 134 142 153 157 147 143 141 147 206 195 156 198 191 188 205 205 110 155 178 173 82 88 151 120 94 85 86
148 158 155 159 174 182 169 164 193 193 173 206 149 152 213 197 193 188 179 196 140 178 167 173 206 186 181 192 191 190 183 201 169 149 181 159 183 77 82 84 89 97 83
158 145 211 144 158 189 178 174 162 189 188 182 160 174 190 190 195 204 193 142 143 193 191 191 188 198 202 181 192 181 174 184 135 147 160 179 180 179 180 164 92 90 87
160 147 233 149 148 206 177 181 186 183 177 179 166 164 170 183 201 190 187 148 200 203 188 190 195 199 184 180 186 182 183 178 172 195 187 162 185 166 152 150 171 169 146
221 224 219 189 213 208 205 203 202 183 178 197 179 148 153 191 162 189 167 182 188 197 183 188 180 200 170 182 172 182 181 185 122 148 166 189 199 199 189 173 178 179 182
203 193 202 214 213 213 205 206 205 204 206 202 145 220 208 206 192 191 171 179 180 196 184 196 171 182 191 189 179 180 178 175 174 176 135 172 181 184 165 174 180 186 189
197 194 198 185 198 201 222 212 201 195 202 201 208 228 228 214 180 183 169 153 181 139 183 185 182 180 172 188 170 189 182 180 182 144 162 169 164 142 153 148 141 157 176
202 203 210 196 197 203 220 204 210 197 195 197 197 208 213 215 194 178 177 126 174 134 174 186 143 175 182 174 164 175 174 172 180 135 171 175 130 167 131 135 153 131 135
176 177 180 198 206 215 202 206 212 206 202 197 199 202 209 95 198 187 182 143 188 160 162 173 180 188 175 179 166 161 173 174 176 170 162 149 143 143 150 125 124 125 125
177 173 172 173 186 215 209 202 198 170 171 186 191 192 204 208 203 202 173 162 178 166 175 173 183 190 181 173 179 180 166 176 180 182 176 148 124 135 134 142 130 124 111
184 174 174 170 181 185 200 196 184 179 200 193 175 181 206 205 207 208 193 194 142 180 172 186 172 142 186 180 179 157 181 178 172 177 177 173 128 177 120 124 110 132 168
169 179 171 174 166 183 179 74 205 193 187 193 182 196 202 200 207 205 208 205 205 188 152 172 180 172 176 185 182 181 178 176 180 172 180 180 178 151 160 163 159 125 135
166 171 176 178 166 162 167 144 196 198 187 182 188 180 202 190 194 205 210 209 205 175 205 160 192 179 176 170 184 187 181 180 176 179 176 177 174 175 139 137 158 165 171
155 176 177 173 171 161 158 167 173 191 187 192 196 189 189 184 175 193 188 180 187 200 205 208 157 203 207 213 205 195 190 182 177 180 182 167 164 177 177 173 167 168 131
160 169 172 177 173 172 166 156 166 185 192 196 192 190 191 185 186 181 184 174 180 182 190 197 197 190 203 201 209 215 214 193 199 180 185 182 185 191 175 163 161 160 155
171 162 168 164 157 161 158 166 161 168 170 191 193 191 186 188 183 183 183 172 174 184 186 197 195 189 197 198 195 198 206 204 211 213 196 189 185 179 179 179 179 180 168
Wind_Speed
31 32 28 23 36 22 26 24 38 33 32 24 23 35 37 38 39 26 35 35 35 37 39 41 36 51 49 52 41 39 37 27 38 45 5 6 15 12 22 5 25 30 9
32 27 29 32 22 39 40 29 27 24 29 37 22 36 32 21 27 40 22 42 42 38 32 42 44 44 22 45 55 48 47 45 24 39 40 24 10 25 50 24 36 2 12
45 35 48 29 33 24 32 27 25 31 35 37 43 32 40 30 45 26 25 39 44 24 41 44 41 50 40 56 42 59 63 55 54 32 47 22 46 15 8 13 10 31 15
53 53 43 40 50 47 46 52 44 49 38 35 36 36 38 28 40 49 27 45 44 25 46 46 42 47 49 43 52 48 62 46 55 57 59 25 9 29 45 35 29 31 24
38 37 38 55 46 50 50 53 48 47 42 43 44 40 33 33 34 39 51 39 46 46 41 36 38 45 51 55 33 56 33 68 70 51 40 54 38 17 7 32 44 14 52
59 56 57 44 44 49 42 51 54 48 45 48 47 45 44 44 38 38 52 47 51 38 49 46 42 38 50 53 59 30 31 32 32 34 49 39 61 23 25 59 31 14 58
52 51 58 48 46 47 46 52 52 53 44 48 50 46 50 45 47 47 50 50 41 51 35 41 44 45 49 55 58 58 42 55 39 65 35 52 50 41 21 27 33 39 18
59 53 55 63 55 49 51 53 53 52 56 53 54 48 46 48 49 50 49 51 51 47 37 39 50 51 51 56 59 58 67 61 60 56 58 37 50 59 48 68 44 37 58
68 69 72 67 60 63 61 59 59 60 57 60 56 51 52 50 50 52 51 51 50 57 46 43 53 54 53 58 61 64 68 71 25 36 40 75 40 38 54 57 64 64 59
62 62 63 63 66 68 66 63 60 55 62 59 60 55 51 52 53 57 54 54 52 57 53 45 51 55 56 58 66 67 66 68 29 26 29 31 45 73 28 39 39 46 47
67 66 66 65 66 63 64 67 68 62 64 69 61 58 58 61 58 58 56 58 57 52 50 51 54 57 53 65 65 67 64 69 40 62 73 73 27 30 59 44 35 26 26
70 70 66 65 68 70 66 65 63 65 66 59 57 57 51 53 52 51 52 52 57 54 56 51 55 56 58 64 64 69 58 68 56 43 72 57 72 33 31 31 33 35 29
73 72 72 68 67 74 70 68 66 62 60 60 62 62 55 52 50 46 47 59 60 54 54 54 55 59 65 60 66 64 55 63 49 47 48 70 69 66 69 63 41 38 34
73 71 65 72 73 72 68 68 66 66 64 64 65 65 59 55 50 48 46 61 47 49 54 55 54 58 59 59 65 60 64 63 57 65 69 53 69 62 51 53 65 67 58
59 59 62 67 64 66 66 66 67 67 63 59 65 56 56 55 52 49 52 48 47 50 53 57 55 56 55 62 56 63 61 62 51 49 55 57 57 63 70 66 69 71 71
59 62 59 57 58 59 60 62 62 61 58 56 59 50 53 53 53 51 51 49 49 49 54 55 56 58 60 63 61 63 61 61 63 61 52 56 60 63 59 62 64 66 69
58 60 57 60 57 56 54 58 60 58 56 57 50 44 48 52 56 52 54 52 50 53 54 56 59 59 58 63 58 65 65 63 64 56 56 60 60 53 56 55 54 58 66
49 49 48 53 54 54 51 57 59 59 59 57 52 48 49 51 55 55 56 52 53 54 56 58 53 62 62 64 59 64 62 61 64 58 61 60 55 59 53 54 59 55 55
67 64 57 47 52 53 55 55 56 57 58 54 49 48 50 42 56 58 58 56 56 54 55 59 60 63 64 65 62 59 67 68 68 64 60 60 62 61 62 54 56 55 53
68 66 64 58 53 49 53 54 55 49 51 54 51 51 50 52 56 60 56 62 59 58 57 60 60 63 66 66 68 70 66 70 71 71 70 64 59 63 61 64 61 58 48
64 65 62 60 50 51 51 53 55 58 54 56 58 55 50 53 56 59 60 60 67 59 58 60 63 61 66 68 69 64 72 72 70 71 70 70 64 69 60 62 50 66 69
71 66 67 61 64 51 53 27 55 58 60 56 54 53 52 53 54 57 57 58 59 61 67 64 64 66 67 69 72 73 74 74 73 73 73 73 72 70 72 70 72 67 71
74 71 68 65 67 68 59 53 56 59 58 57 57 57 55 55 56 56 53 53 55 62 59 69 66 69 70 72 72 74 75 75 75 75 74 73 73 74 71 71 74 75 75
71 74 72 70 65 72 71 54 54 58 60 62 63 59 57 56 56 50 51 53 52 54 55 52 69 60 61 62 68 72 75 77 77 77 77 76 76 78 77 78 79 79 73
80 75 75 73 69 66 70 70 62 54 60 63 61 59 58 58 57 57 56 61 59 58 54 52 54 59 58 61 61 64 67 74 76 78 79 79 79 80 82 81 83 84 83
83 78 76 77 73 70 71 67 65 62 64 58 60 62 62 62 61 60 62 66 65 59 57 56 54 57 57 60 62 63 64 67 68 72 78 80 81 82 82 83 84 85 85
Wind_Direction
247 254 255 261 244 255 272 274 259 263 263 269 256 271 270 260 252 256 253 258 255 251 249 251 258 241 241 249 250 242 251 248 243 242 237 248 258 257 254 255 254 257 252
258 258 261 256 254 240 248 274 275 266 272 240 267 268 263 257 263 270 253 254 255 255 258 253 247 242 245 254 248 249 250 251 256 247 243 247 256 255 248 242 256 254 276
260 257 256 260 264 258 265 265 259 271 251 262 262 269 268 258 251 248 267 259 262 244 258 257 258 250 248 242 252 248 242 248 251 252 247 257 245 255 259 263 264 260 268
250 258 248 255 247 244 244 260 247 257 263 269 266 261 257 269 264 253 250 257 262 253 260 257 261 255 248 245 252 259 245 245 254 249 248 247 237 254 251 258 258 262 260
250 249 252 261 256 258 246 258 258 243 246 252 256 269 262 270 267 265 261 259 261 268 261 263 257 260 238 241 244 252 240 239 243 252 249 249 252 237 242 255 261 241 260
264 261 256 256 256 254 260 257 255 249 252 254 251 250 244 257 270 270 260 263 263 259 267 262 255 252 236 235 245 242 244 240 239 244 252 253 249 249 256 253 256 223 256
256 255 257 253 258 257 263 260 259 254 261 255 252 251 253 253 259 260 261 265 252 260 259 261 265 260 257 235 232 244 240 236 243 239 250 249 256 257 242 260 259 265 266
260 253 257 256 258 259 260 261 263 260 255 258 251 257 261 261 257 259 259 262 262 264 243 257 263 257 257 236 234 246 235 236 239 242 241 254 250 253 255 252 254 256 263
262 263 261 259 257 256 258 259 260 260 257 252 253 249 259 257 255 259 258 258 262 260 257 259 260 258 256 235 236 236 234 233 245 248 250 236 254 260 263 265 261 262 261
252 253 253 256 264 263 258 258 258 255 263 249 256 247 257 250 252 258 256 258 261 261 261 254 265 234 250 240 238 235 232 237 246 242 251 252 255 248 251 257 255 251 265
253 251 255 257 262 258 259 260 257 260 260 262 259 257 260 262 254 255 255 253 257 260 260 264 239 236 245 234 235 242 234 233 242 245 244 248 233 249 250 250 257 248 255
253 255 255 257 261 260 256 257 260 260 259 259 249 254 260 255 256 257 253 246 258 253 256 252 238 240 246 242 235 243 248 238 250 252 245 251 247 239 238 242 250 253 250
259 254 258 253 256 262 258 257 256 259 254 253 256 258 256 255 255 252 248 256 258 245 244 244 241 236 236 247 237 245 250 243 243 245 247 253 255 256 255 264 253 252 253
259 253 251 253 253 256 257 257 258 256 252 251 255 256 257 256 252 249 247 252 243 242 242 241 239 237 244 247 245 243 244 250 248 249 250 249 255 255 248 251 260 261 263
254 253 253 251 252 253 255 256 256 255 254 259 252 251 254 253 252 245 246 244 241 239 242 240 243 238 250 246 252 248 245 245 243 244 249 253 257 258 257 256 260 263 265
253 254 253 250 249 250 250 250 252 255 256 257 250 254 251 246 247 245 243 241 242 238 240 239 245 240 241 245 247 249 249 246 248 248 249 251 252 252 252 254 259 265 268
248 250 250 253 251 247 243 245 249 252 253 254 254 255 250 244 246 244 242 246 239 253 239 240 241 241 245 240 253 249 251 250 247 243 248 249 252 251 250 253 258 260 261
242 244 245 246 247 245 241 244 243 245 247 251 252 251 249 246 241 243 242 252 242 255 239 239 254 243 241 244 252 252 252 254 256 249 253 252 251 253 255 256 257 262 264
241 242 245 242 246 241 243 240 240 242 245 250 250 251 252 235 242 241 242 246 242 247 243 242 242 240 244 243 247 251 251 253 254 253 247 251 250 255 255 259 262 265 267
237 242 245 245 246 241 239 240 244 247 247 244 247 247 250 248 245 244 242 245 242 241 247 240 242 242 242 246 246 247 249 250 251 253 253 252 253 254 257 257 260 266 259
240 239 240 242 242 245 238 238 243 245 242 242 243 246 249 247 247 246 243 244 249 241 241 243 240 252 244 244 245 248 250 251 252 253 254 254 252 258 260 263 258 264 260
244 241 240 237 243 244 245 229 235 242 246 245 246 249 249 249 248 249 249 249 249 245 245 243 242 240 242 244 246 246 248 249 252 253 255 256 256 255 256 256 257 265 264
244 244 242 240 238 245 244 247 238 238 246 249 248 246 246 245 249 250 252 252 251 250 250 247 246 243 244 244 244 246 248 249 251 252 253 255 257 258 256 257 260 263 265
247 243 244 244 240 241 246 249 247 243 247 248 248 250 251 251 249 250 246 244 251 255 254 252 250 249 251 253 251 248 249 249 250 252 254 253 256 258 260 261 262 263 263
245 245 247 248 247 246 243 246 249 253 248 246 250 251 250 250 251 248 249 243 246 247 253 254 252 253 252 252 254 253 253 252 253 253 256 257 258 260 259 259 261 263 265
246 246 247 250 248 247 243 249 247 252 254 250 250 250 250 250 251 251 250 245 247 249 251 255 255 252 253 251 252 255 256 257 258 258 258 259 260 259 261 263 264 266 266